Simultaneous Nadir Overpasses (SNOs) Predictions

Prediction of SNOs between AQUA and NPP Satellite Orbit:

Table of predicted SNOs for the next 14.0 days since TLE Epoch: 12/3/2022
Index Date (AQUA) Time (AQUA) Lat,Lon (AQUA) SZA (AQUA ) Date (NPP) Time (NPP) Lat,Lon (NPP) SZA (NPP ) Distance(km) Time Diff (sec)
1 12/04/2022 06:53:37 78.96, -30.01 114.52 12/04/2022 06:52:44 78.95, -30.04 114.57 0.79 53
2 12/04/2022 07:42:56 -79.26, 139.50 65.87 12/04/2022 07:43:21 -79.25, 139.41 65.87 1.94 25
3 12/06/2022 22:19:37 -79.08, -80.72 65.28 12/06/2022 22:18:55 -79.09, -80.63 65.27 2.02 42
4 12/06/2022 23:08:55 79.35, 88.64 114.38 12/06/2022 23:09:32 79.35, 88.63 114.35 0.34 37
5 12/09/2022 13:45:37 79.08,-132.24 115.05 12/09/2022 13:45:08 79.08,-132.25 115.08 0.24 29
6 12/09/2022 14:34:56 -79.38, 37.35 65.35 12/09/2022 14:35:45 -79.38, 37.28 65.37 1.45 49
7 12/12/2022 05:11:36 -79.21, 177.11 64.85 12/12/2022 05:11:19 -79.21, 177.16 64.85 1.14 17
8 12/12/2022 06:00:54 79.47, -13.53 114.81 12/12/2022 06:01:56 79.46, -13.57 114.77 0.91 62
9 12/14/2022 20:37:36 79.20, 125.56 115.39 12/14/2022 20:37:33 79.19, 125.47 115.41 2.14 3



Historial Predications of SNOs between AQUA and NPP
